When you browse on this site, cookies collect data to enhance your experience and personalize the content and advertising you see.
Visit our Privacy Policy to learn more. By continuing to use the site, you agree to this use of cookies and data.
  • în România
  • Lista ţărilor
  • Pe 7 zile
  • Temperatura apei
  • Hartă satelitară
  • Meteo pe hartă
  • Widget-uri
  • user-avatar
    Intrare

    Meteo pe oră la Bandar Abbas

    Astăzi, 21 Ianuarie, Luni

    Timp Temperatura Precipitaţii Vânt Presiune Umiditate
    00:00 +18°C° 0 mm 2 m/s 763 mmHg 42%
    01:00 +19°C° 0 mm 1 m/s 763 mmHg 44%
    02:00 +17°C° 0 mm 2 m/s 763 mmHg 41%
    03:00 +17°C° 0 mm 3 m/s 763 mmHg 38%
    04:00 +17°C° 0 mm 4 m/s 763 mmHg 35%
    05:00 +17°C° 0 mm 4 m/s 763 mmHg 34%
    06:00 +16°C° 0 mm 3 m/s 763 mmHg 33%
    07:00 +16°C° 0 mm 3 m/s 763 mmHg 32%
    08:00 +17°C° 0 mm 3 m/s 764 mmHg 29%
    09:00 +18°C° 0 mm 3 m/s 764 mmHg 25%
    10:00 +19°C° 0 mm 3 m/s 764 mmHg 21%
    11:00 +20°C° 0 mm 3 m/s 764 mmHg 20%
    12:00 +21°C° 0 mm 3 m/s 763 mmHg 18%
    13:00 +21°C° 0 mm 2 m/s 762 mmHg 16%
    14:00 +23°C° 0 mm 2 m/s 762 mmHg 16%
    15:00 +23°C° 0 mm 2 m/s 762 mmHg 16%
    16:00 +23°C° 0 mm 1 m/s 761 mmHg 16%
    17:00 +22°C° 0 mm 1 m/s 761 mmHg 19%
    18:00 +22°C° 0 mm 1 m/s 762 mmHg 22%
    19:00 +21°C° 0 mm 1 m/s 762 mmHg 25%
    20:00 +20°C° 0 mm 1 m/s 762 mmHg 27%
    21:00 +20°C° 0 mm 1 m/s 762 mmHg 29%
    22:00 +20°C° 0 mm 1 m/s 762 mmHg 31%
    23:00 +19°C° 0 mm 1 m/s 762 mmHg 32%

    Mâine, 22 Ianuarie, Marţi

    Timp Temperatura Precipitaţii Vânt Presiune Umiditate
    00:00 +19°C° 0 mm 1 m/s 762 mmHg 33%
    01:00 +16°C° 0 mm 0 m/s 761 mmHg 35%
    02:00 +16°C° 0 mm 0 m/s 761 mmHg 35%
    03:00 +16°C° 0 mm 0 m/s 761 mmHg 35%
    04:00 +15°C° 0 mm 0 m/s 761 mmHg 35%
    05:00 +16°C° 0 mm 1 m/s 761 mmHg 34%
    06:00 +16°C° 0 mm 1 m/s 761 mmHg 34%
    07:00 +16°C° 0 mm 1 m/s 761 mmHg 33%
    08:00 +18°C° 0 mm 1 m/s 761 mmHg 29%
    09:00 +19°C° 0 mm 1 m/s 762 mmHg 25%
    10:00 +20°C° 0 mm 2 m/s 762 mmHg 21%
    11:00 +22°C° 0 mm 1 m/s 761 mmHg 23%
    12:00 +22°C° 0 mm 1 m/s 760 mmHg 24%
    13:00 +23°C° 0 mm 1 m/s 760 mmHg 25%
    14:00 +23°C° 0 mm 1 m/s 759 mmHg 27%
    15:00 +23°C° 0 mm 2 m/s 759 mmHg 29%
    16:00 +22°C° 0 mm 3 m/s 759 mmHg 31%
    17:00 +22°C° 0 mm 3 m/s 759 mmHg 35%
    18:00 +21°C° 0 mm 3 m/s 759 mmHg 39%
    19:00 +21°C° 0 mm 3 m/s 760 mmHg 42%
    20:00 +20°C° 0 mm 2 m/s 760 mmHg 44%
    21:00 +20°C° 0 mm 2 m/s 760 mmHg 46%
    22:00 +20°C° 0 mm 1 m/s 760 mmHg 47%
    23:00 +20°C° 0 mm 1 m/s 760 mmHg 47%

    Poimâine, 23 Ianuarie, Miercuri

    Timp Temperatura Precipitaţii Vânt Presiune Umiditate
    00:00 +20°C° 0 mm 1 m/s 760 mmHg 47%
    01:00 +20°C° 0 mm 1 m/s 760 mmHg 47%
    02:00 +18°C° 0 mm 2 m/s 760 mmHg 49%
    03:00 +18°C° 0 mm 2 m/s 760 mmHg 51%
    04:00 +18°C° 0 mm 2 m/s 760 mmHg 52%
    05:00 +17°C° 0 mm 2 m/s 760 mmHg 53%
    06:00 +17°C° 0 mm 2 m/s 760 mmHg 54%
    07:00 +17°C° 0 mm 2 m/s 761 mmHg 56%
    08:00 +18°C° 0 mm 2 m/s 761 mmHg 51%
    09:00 +19°C° 0 mm 2 m/s 762 mmHg 46%
    10:00 +21°C° 0 mm 2 m/s 762 mmHg 42%
    11:00 +21°C° 0 mm 2 m/s 762 mmHg 39%
    12:00 +23°C° 0 mm 1 m/s 761 mmHg 36%
    13:00 +24°C° 0 mm 1 m/s 761 mmHg 33%
    14:00 +24°C° 0 mm 1 m/s 760 mmHg 32%
    15:00 +24°C° 0 mm 1 m/s 760 mmHg 31%
    16:00 +25°C° 0 mm 2 m/s 760 mmHg 30%
    17:00 +24°C° 0 mm 2 m/s 760 mmHg 34%
    18:00 +23°C° 0 mm 2 m/s 760 mmHg 37%
    19:00 +23°C° 0 mm 2 m/s 761 mmHg 40%
    20:00 +22°C° 0 mm 1 m/s 761 mmHg 42%
    21:00 +22°C° 0 mm 1 m/s 762 mmHg 44%
    22:00 +21°C° 0 mm 1 m/s 762 mmHg 46%
    23:00 +21°C° 0 mm 1 m/s 762 mmHg 47%

    24 Ianuarie, Joi

    Timp Temperatura Precipitaţii Vânt Presiune Umiditate
    00:00 +20°C° 0 mm 2 m/s 762 mmHg 49%
    01:00 +19°C° 0 mm 3 m/s 762 mmHg 50%
    02:00 +19°C° 0 mm 3 m/s 762 mmHg 52%
    03:00 +19°C° 0 mm 3 m/s 762 mmHg 54%
    04:00 +19°C° 0 mm 3 m/s 762 mmHg 55%
    05:00 +18°C° 0 mm 3 m/s 763 mmHg 55%
    06:00 +18°C° 0 mm 3 m/s 763 mmHg 56%
    07:00 +18°C° 0 mm 3 m/s 764 mmHg 56%
    08:00 +19°C° 0 mm 3 m/s 764 mmHg 47%
    09:00 +21°C° 0 mm 3 m/s 765 mmHg 38%
    10:00 +22°C° 0 mm 3 m/s 765 mmHg 29%
    11:00 +24°C° 0 mm 3 m/s 765 mmHg 25%
    12:00 +24°C° 0 mm 3 m/s 764 mmHg 20%
    13:00 +25°C° 0 mm 3 m/s 764 mmHg 16%
    14:00 +25°C° 0 mm 2 m/s 763 mmHg 16%
    15:00 +25°C° 0 mm 2 m/s 763 mmHg 16%
    16:00 +25°C° 0 mm 1 m/s 762 mmHg 15%
    17:00 +25°C° 0 mm 1 m/s 763 mmHg 18%
    18:00 +24°C° 0 mm 1 m/s 763 mmHg 20%
    19:00 +23°C° 0 mm 1 m/s 764 mmHg 23%
    20:00 +22°C° 0 mm 1 m/s 764 mmHg 24%
    21:00 +22°C° 0 mm 1 m/s 764 mmHg 25%
    22:00 +21°C° 0 mm 1 m/s 764 mmHg 26%
    23:00 +20°C° 0 mm 2 m/s 764 mmHg 26%

    25 Ianuarie, Vineri

    Timp Temperatura Precipitaţii Vânt Presiune Umiditate
    00:00 +20°C° 0 mm 2 m/s 764 mmHg 27%
    01:00 +19°C° 0 mm 2 m/s 764 mmHg 27%
    02:00 +19°C° 0 mm 2 m/s 764 mmHg 27%
    03:00 +19°C° 0 mm 2 m/s 764 mmHg 28%
    04:00 +18°C° 0 mm 2 m/s 764 mmHg 28%
    05:00 +18°C° 0 mm 2 m/s 764 mmHg 29%
    06:00 +17°C° 0 mm 2 m/s 764 mmHg 29%
    07:00 +17°C° 0 mm 2 m/s 764 mmHg 29%
    08:00 +19°C° 0 mm 2 m/s 764 mmHg 25%
    09:00 +21°C° 0 mm 2 m/s 765 mmHg 21%
    10:00 +23°C° 0 mm 2 m/s 765 mmHg 17%
    11:00 +24°C° 0 mm 2 m/s 764 mmHg 15%
    12:00 +25°C° 0 mm 2 m/s 764 mmHg 14%
    13:00 +25°C° 0 mm 1 m/s 763 mmHg 13%
    14:00 +25°C° 0 mm 1 m/s 763 mmHg 13%
    15:00 +25°C° 0 mm 1 m/s 763 mmHg 13%
    16:00 +26°C° 0 mm 2 m/s 762 mmHg 14%
    17:00 +25°C° 0 mm 2 m/s 762 mmHg 17%
    18:00 +24°C° 0 mm 2 m/s 763 mmHg 21%
    19:00 +23°C° 0 mm 2 m/s 763 mmHg 24%
    20:00 +21°C° 0 mm 2 m/s 763 mmHg 27%
    21:00 +22°C° 0 mm 1 m/s 764 mmHg 30%
    22:00 +21°C° 0 mm 1 m/s 764 mmHg 33%
    23:00 +20°C° 0 mm 1 m/s 764 mmHg 34%

    26 Ianuarie, Sâmbătă

    Timp Temperatura Precipitaţii Vânt Presiune Umiditate
    00:00 +20°C° 0 mm 1 m/s 764 mmHg 35%
    01:00 +17°C° 0 mm 0 m/s 764 mmHg 37%
    02:00 +17°C° 0 mm 0 m/s 763 mmHg 37%
    03:00 +17°C° 0 mm 0 m/s 763 mmHg 38%
    04:00 +16°C° 0 mm 0 m/s 763 mmHg 39%
    05:00 +18°C° 0 mm 1 m/s 764 mmHg 40%
    06:00 +18°C° 0 mm 1 m/s 764 mmHg 41%
    07:00 +18°C° 0 mm 1 m/s 764 mmHg 41%
    08:00 +20°C° 0 mm 1 m/s 764 mmHg 38%
    09:00 +20°C° 0 mm 2 m/s 765 mmHg 35%
    10:00 +23°C° 0 mm 2 m/s 765 mmHg 32%
    11:00 +23°C° 0 mm 2 m/s 765 mmHg 32%
    12:00 +24°C° 0 mm 1 m/s 764 mmHg 31%
    13:00 +24°C° 0 mm 1 m/s 764 mmHg 31%
    14:00 +25°C° 0 mm 2 m/s 763 mmHg 31%
    15:00 +25°C° 0 mm 2 m/s 763 mmHg 31%
    16:00 +25°C° 0 mm 2 m/s 763 mmHg 31%
    17:00 +24°C° 0 mm 2 m/s 763 mmHg 35%
    18:00 +23°C° 0 mm 2 m/s 764 mmHg 39%
    19:00 +23°C° 0 mm 1 m/s 764 mmHg 43%
    20:00 +22°C° 0 mm 1 m/s 765 mmHg 45%
    21:00 +22°C° 0 mm 1 m/s 765 mmHg 48%
    22:00 +21°C° 0 mm 1 m/s 765 mmHg 51%
    23:00 +21°C° 0 mm 1 m/s 765 mmHg 50%
    Arată mai mult